User: anonymous   Login
Location: Chircca
(13.7944°S, 72.0608°W)
Time: 22:52:41
(UTC+00:00)
Language:

SJ-12 - Orbit

View from above orbital plane
View from above orbital plane
View from above satellite
View from above satellite

Ground track
Ground track

The orbit data is extracted from the following two-line orbital elements,

1 36596U 10027A   20275.59681927 +.00000398 +00000-0 +39812-4 0  9999
2 36596 097.6640 262.4083 0010923 329.7741 030.2850 14.96783218561667
Epoch (UTC): 01 October 2020 14:19:25
Eccentricity: 0.0010923
inclination: 97.6640°
perigee height: 569 km
apogee height: 584 km
right ascension of ascending node: 262.4083°
argument of perigee: 329.7741°
revolutions per day: 14.96783218
mean anomaly at epoch: 30.2850°
orbit number at epoch: 56166

The dashed part of the orbit path shows where the satellite is in the earth's shadow,  

DLR